When you browse on this site, cookies collect data to enhance your experience and personalize the content and advertising you see.
Visit our Privacy Policy to learn more. By continuing to use the site, you agree to this use of cookies and data.
  • In Spain
  • List of Countries
  • For 7 days
  • Water Temperature
  • Weather Map
  • Weather Widgets
  • user-avatar
    Login

    Hourly Weather Annaba

    Today, 30 May, Saturday

    Time Temperature Precipitation Wind Pressure Humidity
    00:00 +19°C° 0 mm 2 mps 758 mmHg 88%
    01:00 +18°C° 0 mm 2 mps 758 mmHg 89%
    02:00 +18°C° 0 mm 2 mps 758 mmHg 90%
    03:00 +18°C° 0 mm 2 mps 758 mmHg 90%
    04:00 +18°C° 0 mm 2 mps 757 mmHg 90%
    05:00 +19°C° 0 mm 2 mps 758 mmHg 87%
    06:00 +19°C° 0 mm 2 mps 758 mmHg 84%
    07:00 +20°C° 0 mm 2 mps 758 mmHg 81%
    08:00 +23°C° 0 mm 2 mps 758 mmHg 74%
    09:00 +24°C° 0 mm 2 mps 758 mmHg 67%
    10:00 +25°C° 0 mm 3 mps 758 mmHg 60%
    11:00 +26°C° 0 mm 3 mps 758 mmHg 58%
    12:00 +26°C° 0 mm 4 mps 758 mmHg 56%
    13:00 +27°C° 0 mm 4 mps 758 mmHg 54%
    14:00 +26°C° 0 mm 4 mps 758 mmHg 55%
    15:00 +26°C° 0 mm 4 mps 758 mmHg 56%
    16:00 +26°C° 0 mm 4 mps 758 mmHg 57%
    17:00 +24°C° 0 mm 3 mps 758 mmHg 62%
    18:00 +22°C° 0 mm 3 mps 758 mmHg 66%
    19:00 +21°C° 0 mm 2 mps 758 mmHg 71%
    20:00 +20°C° 0 mm 2 mps 759 mmHg 77%
    21:00 +20°C° 0 mm 1 mps 759 mmHg 83%
    22:00 +19°C° 0 mm 1 mps 760 mmHg 89%
    23:00 +18°C° 0 mm 1 mps 760 mmHg 90%

    Tomorrow, 31 May, Sunday

    Time Temperature Precipitation Wind Pressure Humidity
    00:00 +18°C° 0 mm 1 mps 760 mmHg 90%
    01:00 +18°C° 0 mm 1 mps 759 mmHg 90%
    02:00 +18°C° 0 mm 1 mps 759 mmHg 89%
    03:00 +16°C° 0 mm 1 mps 759 mmHg 89%
    04:00 +16°C° 0 mm 1 mps 759 mmHg 88%
    05:00 +18°C° 0 mm 1 mps 759 mmHg 83%
    06:00 +19°C° 0 mm 1 mps 759 mmHg 77%
    07:00 +20°C° 0 mm 1 mps 759 mmHg 72%
    08:00 +22°C° 0 mm 1 mps 759 mmHg 63%
    09:00 +24°C° 0 mm 1 mps 759 mmHg 54%
    10:00 +26°C° 0 mm 1 mps 760 mmHg 45%
    11:00 +27°C° 0 mm 2 mps 759 mmHg 44%
    12:00 +27°C° 0 mm 3 mps 759 mmHg 42%
    13:00 +28°C° 0 mm 4 mps 759 mmHg 41%
    14:00 +27°C° 0 mm 4 mps 759 mmHg 44%
    15:00 +27°C° 0 mm 4 mps 758 mmHg 47%
    16:00 +26°C° 0 mm 5 mps 758 mmHg 50%
    17:00 +25°C° 0 mm 5 mps 758 mmHg 55%
    18:00 +23°C° 0 mm 4 mps 758 mmHg 60%
    19:00 +22°C° 0 mm 4 mps 758 mmHg 65%
    20:00 +21°C° 0 mm 4 mps 759 mmHg 69%
    21:00 +20°C° 0 mm 3 mps 759 mmHg 72%
    22:00 +19°C° 0 mm 3 mps 759 mmHg 76%
    23:00 +19°C° 0 mm 3 mps 759 mmHg 74%

    Day after tomorrow, 1 June, Monday

    Time Temperature Precipitation Wind Pressure Humidity
    00:00 +19°C° 0 mm 2 mps 758 mmHg 73%
    01:00 +19°C° 0 mm 2 mps 758 mmHg 71%
    02:00 +19°C° 0 mm 2 mps 758 mmHg 71%
    03:00 +19°C° 0 mm 2 mps 758 mmHg 70%
    04:00 +19°C° 0 mm 2 mps 757 mmHg 69%
    05:00 +20°C° 0 mm 2 mps 757 mmHg 67%
    06:00 +21°C° 0 mm 1 mps 758 mmHg 65%
    07:00 +22°C° 0 mm 1 mps 758 mmHg 63%
    08:00 +24°C° 0.1 mm 1 mps 758 mmHg 59%
    09:00 +26°C° 0.1 mm 2 mps 758 mmHg 55%
    10:00 +27°C° 0.1 mm 2 mps 758 mmHg 51%
    11:00 +28°C° 0.2 mm 3 mps 758 mmHg 51%
    12:00 +29°C° 0.2 mm 3 mps 758 mmHg 50%
    13:00 +29°C° 0.2 mm 4 mps 757 mmHg 50%
    14:00 +29°C° 0.1 mm 4 mps 757 mmHg 51%
    15:00 +28°C° 0.1 mm 5 mps 757 mmHg 53%
    16:00 +28°C° 0.1 mm 5 mps 757 mmHg 54%
    17:00 +26°C° 0 mm 5 mps 757 mmHg 59%
    18:00 +25°C° 0 mm 4 mps 758 mmHg 63%
    19:00 +24°C° 0 mm 3 mps 758 mmHg 67%
    20:00 +22°C° 0 mm 3 mps 758 mmHg 71%
    21:00 +21°C° 0 mm 3 mps 759 mmHg 75%
    22:00 +20°C° 0 mm 2 mps 759 mmHg 79%
    23:00 +19°C° 0 mm 2 mps 759 mmHg 80%

    2 June, Tuesday

    Time Temperature Precipitation Wind Pressure Humidity
    00:00 +19°C° 0 mm 2 mps 759 mmHg 81%
    01:00 +19°C° 0 mm 2 mps 759 mmHg 82%
    02:00 +18°C° 0 mm 2 mps 759 mmHg 83%
    03:00 +19°C° 0 mm 1 mps 759 mmHg 84%
    04:00 +19°C° 0 mm 1 mps 759 mmHg 85%
    05:00 +20°C° 0 mm 1 mps 759 mmHg 80%
    06:00 +21°C° 0 mm 1 mps 759 mmHg 75%
    07:00 +22°C° 0 mm 1 mps 759 mmHg 70%
    08:00 +24°C° 0 mm 2 mps 759 mmHg 63%
    09:00 +26°C° 0 mm 2 mps 759 mmHg 55%
    10:00 +28°C° 0 mm 2 mps 759 mmHg 48%
    11:00 +29°C° 0 mm 3 mps 759 mmHg 46%
    12:00 +29°C° 0 mm 3 mps 759 mmHg 44%
    13:00 +30°C° 0 mm 4 mps 758 mmHg 41%
    14:00 +30°C° 0 mm 4 mps 758 mmHg 41%
    15:00 +30°C° 0 mm 4 mps 757 mmHg 41%
    16:00 +29°C° 0 mm 5 mps 757 mmHg 41%
    17:00 +28°C° 0 mm 4 mps 757 mmHg 46%
    18:00 +27°C° 0 mm 4 mps 757 mmHg 50%
    19:00 +25°C° 0 mm 4 mps 756 mmHg 55%
    20:00 +24°C° 0 mm 3 mps 756 mmHg 58%
    21:00 +22°C° 0 mm 3 mps 757 mmHg 61%
    22:00 +21°C° 0 mm 3 mps 757 mmHg 65%
    23:00 +21°C° 0 mm 2 mps 756 mmHg 62%

    3 June, Wednesday

    Time Temperature Precipitation Wind Pressure Humidity
    00:00 +21°C° 0 mm 2 mps 756 mmHg 60%
    01:00 +21°C° 0 mm 2 mps 755 mmHg 58%
    02:00 +21°C° 0 mm 2 mps 755 mmHg 56%
    03:00 +21°C° 0 mm 2 mps 754 mmHg 54%
    04:00 +21°C° 0 mm 2 mps 754 mmHg 53%
    05:00 +24°C° 0 mm 2 mps 753 mmHg 51%
    06:00 +25°C° 0 mm 2 mps 753 mmHg 49%
    07:00 +26°C° 0 mm 2 mps 753 mmHg 48%
    08:00 +28°C° 0.1 mm 1 mps 753 mmHg 44%
    09:00 +30°C° 0.1 mm 1 mps 753 mmHg 41%
    10:00 +33°C° 0.1 mm 1 mps 753 mmHg 37%
    11:00 +33°C° 0.1 mm 3 mps 753 mmHg 40%
    12:00 +33°C° 0.1 mm 4 mps 753 mmHg 42%
    13:00 +32°C° 0.1 mm 6 mps 752 mmHg 45%
    14:00 +32°C° 0.1 mm 5 mps 752 mmHg 48%
    15:00 +30°C° 0.1 mm 5 mps 752 mmHg 52%
    16:00 +29°C° 0.1 mm 4 mps 752 mmHg 55%
    17:00 +28°C° 0 mm 4 mps 752 mmHg 58%
    18:00 +27°C° 0 mm 3 mps 752 mmHg 60%
    19:00 +26°C° 0 mm 2 mps 752 mmHg 63%
    20:00 +25°C° 0.1 mm 2 mps 753 mmHg 67%
    21:00 +24°C° 0.1 mm 2 mps 753 mmHg 72%
    22:00 +22°C° 0.1 mm 1 mps 754 mmHg 76%
    23:00 +22°C° 0.1 mm 1 mps 754 mmHg 77%

    4 June, Thursday

    Time Temperature Precipitation Wind Pressure Humidity
    00:00 +22°C° 0.1 mm 1 mps 754 mmHg 78%
    01:00 +22°C° 0.1 mm 1 mps 753 mmHg 78%
    02:00 +22°C° 0.3 mm 1 mps 753 mmHg 80%
    03:00 +22°C° 0.3 mm 1 mps 753 mmHg 81%
    04:00 +21°C° 0.3 mm 1 mps 753 mmHg 82%
    05:00 +22°C° 0.2 mm 1 mps 753 mmHg 79%
    06:00 +23°C° 0.2 mm 1 mps 753 mmHg 75%
    07:00 +24°C° 0.2 mm 1 mps 753 mmHg 72%
    08:00 +27°C° 0 mm 1 mps 753 mmHg 64%
    09:00 +29°C° 0 mm 1 mps 753 mmHg 56%
    10:00 +31°C° 0 mm 1 mps 753 mmHg 48%
    11:00 +32°C° 0 mm 2 mps 753 mmHg 46%
    12:00 +33°C° 0 mm 3 mps 753 mmHg 44%
    13:00 +34°C° 0 mm 4 mps 753 mmHg 41%
    14:00 +33°C° 0 mm 4 mps 753 mmHg 41%
    15:00 +32°C° 0 mm 4 mps 753 mmHg 41%
    16:00 +32°C° 0 mm 4 mps 753 mmHg 42%
    17:00 +29°C° 0 mm 4 mps 753 mmHg 45%
    18:00 +28°C° 0 mm 3 mps 753 mmHg 49%
    19:00 +27°C° 0 mm 3 mps 753 mmHg 53%
    20:00 +26°C° 0 mm 2 mps 754 mmHg 56%
    21:00 +25°C° 0 mm 1 mps 754 mmHg 59%
    22:00 +24°C° 0 mm 1 mps 755 mmHg 62%
    23:00 +21°C° 0 mm 0 mps 754 mmHg 62%
    Show more